• In India
  • List of Countries
  • For 7 days
  • Water Temperature
  • Satellite Maps
  • Weather Map
  • Weather Widgets
  • user-avatar
    Login

    Hourly Weather Etchmiadzin

    Today, 26 September, Tuesday

    Time Temperature Precipitation Wind Pressure Humidity
    00:00 +19°C° 0 mm 2 mps 688 mmHg 61%
    01:00 +18°C° 0 mm 2 mps 688 mmHg 63%
    02:00 +18°C° 0 mm 2 mps 688 mmHg 64%
    03:00 +18°C° 0 mm 1 mps 688 mmHg 67%
    04:00 +18°C° 0 mm 1 mps 688 mmHg 68%
    05:00 +16°C° 0 mm 1 mps 688 mmHg 69%
    06:00 +16°C° 0 mm 1 mps 687 mmHg 70%
    07:00 +19°C° 0 mm 1 mps 688 mmHg 60%
    08:00 +22°C° 0 mm 1 mps 688 mmHg 49%
    09:00 +24°C° 0 mm 2 mps 688 mmHg 38%
    10:00 +25°C° 0 mm 2 mps 688 mmHg 34%
    11:00 +26°C° 0 mm 2 mps 688 mmHg 30%
    12:00 +28°C° 0 mm 2 mps 688 mmHg 25%
    13:00 +28°C° 0 mm 2 mps 687 mmHg 25%
    14:00 +28°C° 0 mm 2 mps 687 mmHg 24%
    15:00 +29°C° 0 mm 2 mps 687 mmHg 23%
    16:00 +27°C° 0 mm 2 mps 686 mmHg 27%
    17:00 +25°C° 0 mm 2 mps 686 mmHg 31%
    18:00 +24°C° 0 mm 2 mps 686 mmHg 35%
    19:00 +23°C° 0 mm 2 mps 686 mmHg 40%
    20:00 +21°C° 0 mm 2 mps 686 mmHg 44%
    21:00 +21°C° 0 mm 2 mps 687 mmHg 49%
    22:00 +21°C° 0.1 mm 2 mps 687 mmHg 52%
    23:00 +20°C° 0.1 mm 2 mps 687 mmHg 55%

    Tomorrow, 27 September, Wednesday

    Time Temperature Precipitation Wind Pressure Humidity
    00:00 +20°C° 0.1 mm 2 mps 687 mmHg 58%
    01:00 +21°C° 0.1 mm 1 mps 687 mmHg 60%
    02:00 +20°C° 0.1 mm 1 mps 686 mmHg 62%
    03:00 +20°C° 0.1 mm 1 mps 686 mmHg 64%
    04:00 +19°C° 0.2 mm 1 mps 686 mmHg 65%
    05:00 +19°C° 0.2 mm 1 mps 686 mmHg 66%
    06:00 +18°C° 0.2 mm 1 mps 686 mmHg 67%
    07:00 +20°C° 0.2 mm 1 mps 686 mmHg 59%
    08:00 +22°C° 0.2 mm 1 mps 686 mmHg 50%
    09:00 +24°C° 0.2 mm 2 mps 687 mmHg 41%
    10:00 +25°C° 0.1 mm 2 mps 687 mmHg 38%
    11:00 +27°C° 0.1 mm 2 mps 686 mmHg 34%
    12:00 +28°C° 0.1 mm 3 mps 686 mmHg 31%
    13:00 +28°C° 0.2 mm 3 mps 686 mmHg 30%
    14:00 +28°C° 0.2 mm 3 mps 685 mmHg 29%
    15:00 +29°C° 0.2 mm 3 mps 685 mmHg 29%
    16:00 +27°C° 0.3 mm 3 mps 685 mmHg 34%
    17:00 +25°C° 0.3 mm 3 mps 685 mmHg 40%
    18:00 +24°C° 0.3 mm 3 mps 685 mmHg 46%
    19:00 +22°C° 0.2 mm 3 mps 685 mmHg 51%
    20:00 +21°C° 0.2 mm 3 mps 685 mmHg 56%
    21:00 +20°C° 0.2 mm 3 mps 686 mmHg 61%
    22:00 +19°C° 0.2 mm 3 mps 685 mmHg 64%
    23:00 +19°C° 0.2 mm 2 mps 685 mmHg 66%

    Day after tomorrow, 28 September, Thursday

    Time Temperature Precipitation Wind Pressure Humidity
    00:00 +18°C° 0.2 mm 2 mps 685 mmHg 69%
    01:00 +17°C° 0.1 mm 2 mps 685 mmHg 70%
    02:00 +17°C° 0.1 mm 2 mps 685 mmHg 70%
    03:00 +18°C° 0.1 mm 1 mps 685 mmHg 71%
    04:00 +16°C° 0.1 mm 1 mps 685 mmHg 72%
    05:00 +16°C° 0.1 mm 1 mps 685 mmHg 72%
    06:00 +16°C° 0.1 mm 1 mps 685 mmHg 73%
    07:00 +19°C° 0.1 mm 1 mps 686 mmHg 66%
    08:00 +20°C° 0.1 mm 1 mps 686 mmHg 58%
    09:00 +22°C° 0.1 mm 1 mps 687 mmHg 51%
    10:00 +23°C° 0.1 mm 2 mps 687 mmHg 48%
    11:00 +24°C° 0.1 mm 2 mps 687 mmHg 44%
    12:00 +25°C° 0.1 mm 2 mps 687 mmHg 40%
    13:00 +25°C° 0.3 mm 2 mps 687 mmHg 40%
    14:00 +26°C° 0.3 mm 2 mps 686 mmHg 39%
    15:00 +26°C° 0.3 mm 2 mps 686 mmHg 38%
    16:00 +24°C° 0.3 mm 3 mps 686 mmHg 43%
    17:00 +22°C° 0.3 mm 3 mps 686 mmHg 49%
    18:00 +21°C° 0.3 mm 4 mps 686 mmHg 54%
    19:00 +20°C° 0.2 mm 3 mps 687 mmHg 58%
    20:00 +19°C° 0.2 mm 3 mps 687 mmHg 61%
    21:00 +18°C° 0.2 mm 3 mps 688 mmHg 65%
    22:00 +17°C° 0.2 mm 3 mps 688 mmHg 66%
    23:00 +17°C° 0.2 mm 3 mps 688 mmHg 68%

    29 September, Friday

    Time Temperature Precipitation Wind Pressure Humidity
    00:00 +16°C° 0.2 mm 2 mps 688 mmHg 69%
    01:00 +16°C° 0 mm 2 mps 688 mmHg 70%
    02:00 +16°C° 0 mm 2 mps 688 mmHg 71%
    03:00 +15°C° 0 mm 2 mps 688 mmHg 73%
    04:00 +15°C° 0 mm 2 mps 688 mmHg 73%
    05:00 +15°C° 0 mm 2 mps 688 mmHg 74%
    06:00 +14°C° 0 mm 2 mps 688 mmHg 75%
    07:00 +16°C° 0 mm 2 mps 688 mmHg 67%
    08:00 +18°C° 0 mm 2 mps 689 mmHg 60%
    09:00 +19°C° 0 mm 2 mps 689 mmHg 52%
    10:00 +20°C° 0 mm 2 mps 689 mmHg 49%
    11:00 +21°C° 0 mm 3 mps 688 mmHg 45%
    12:00 +24°C° 0 mm 3 mps 688 mmHg 41%
    13:00 +24°C° 0 mm 3 mps 688 mmHg 41%
    14:00 +24°C° 0 mm 3 mps 688 mmHg 41%
    15:00 +24°C° 0 mm 3 mps 687 mmHg 41%
    16:00 +22°C° 0.1 mm 3 mps 687 mmHg 46%
    17:00 +21°C° 0.1 mm 3 mps 687 mmHg 51%
    18:00 +19°C° 0.1 mm 3 mps 687 mmHg 56%
    19:00 +19°C° 0.2 mm 3 mps 687 mmHg 59%
    20:00 +18°C° 0.2 mm 3 mps 687 mmHg 62%
    21:00 +17°C° 0.2 mm 3 mps 687 mmHg 65%
    22:00 +17°C° 0.2 mm 3 mps 687 mmHg 66%
    23:00 +16°C° 0.2 mm 2 mps 687 mmHg 68%

    30 September, Saturday

    Time Temperature Precipitation Wind Pressure Humidity
    00:00 +16°C° 0.2 mm 2 mps 687 mmHg 69%
    01:00 +15°C° 0 mm 2 mps 687 mmHg 70%
    02:00 +15°C° 0 mm 2 mps 686 mmHg 71%
    03:00 +15°C° 0 mm 2 mps 686 mmHg 72%
    04:00 +14°C° 0 mm 2 mps 686 mmHg 72%
    05:00 +14°C° 0 mm 2 mps 686 mmHg 72%
    06:00 +14°C° 0 mm 2 mps 686 mmHg 72%
    07:00 +16°C° 0 mm 2 mps 686 mmHg 64%
    08:00 +18°C° 0 mm 2 mps 687 mmHg 57%
    09:00 +19°C° 0 mm 2 mps 687 mmHg 49%
    10:00 +20°C° 0.2 mm 2 mps 686 mmHg 47%
    11:00 +21°C° 0.2 mm 2 mps 686 mmHg 46%
    12:00 +23°C° 0.2 mm 2 mps 686 mmHg 44%
    13:00 +23°C° 0.3 mm 2 mps 685 mmHg 43%
    14:00 +23°C° 0.3 mm 2 mps 685 mmHg 42%
    15:00 +23°C° 0.3 mm 2 mps 685 mmHg 42%
    16:00 +22°C° 0.5 mm 1 mps 684 mmHg 47%
    17:00 +21°C° 0.5 mm 1 mps 684 mmHg 52%
    18:00 +20°C° 0.5 mm 1 mps 684 mmHg 56%
    19:00 +20°C° 0.5 mm 1 mps 684 mmHg 59%
    20:00 +19°C° 0.5 mm 1 mps 684 mmHg 61%
    21:00 +19°C° 0.5 mm 1 mps 685 mmHg 63%
    22:00 +18°C° 0.2 mm 1 mps 684 mmHg 65%
    23:00 +18°C° 0.2 mm 1 mps 684 mmHg 67%

    1 October, Sunday

    Time Temperature Precipitation Wind Pressure Humidity
    00:00 +16°C° 0.2 mm 1 mps 684 mmHg 70%
    01:00 +16°C° 0 mm 1 mps 684 mmHg 70%
    02:00 +15°C° 0 mm 1 mps 684 mmHg 71%
    03:00 +15°C° 0 mm 1 mps 684 mmHg 71%
    04:00 +15°C° 0 mm 1 mps 685 mmHg 71%
    05:00 +14°C° 0 mm 1 mps 685 mmHg 70%
    06:00 +14°C° 0 mm 1 mps 685 mmHg 69%
    07:00 +16°C° 0 mm 1 mps 686 mmHg 62%
    08:00 +19°C° 0 mm 1 mps 686 mmHg 55%
    09:00 +22°C° 0 mm 1 mps 686 mmHg 47%
    10:00 +23°C° 0 mm 2 mps 686 mmHg 44%
    11:00 +24°C° 0 mm 2 mps 686 mmHg 41%
    12:00 +25°C° 0 mm 2 mps 686 mmHg 38%
    13:00 +25°C° 0.1 mm 3 mps 686 mmHg 37%
    14:00 +25°C° 0.1 mm 3 mps 685 mmHg 36%
    15:00 +25°C° 0.1 mm 3 mps 685 mmHg 36%
    16:00 +24°C° 0.2 mm 2 mps 685 mmHg 40%
    17:00 +23°C° 0.2 mm 2 mps 685 mmHg 44%
    18:00 +21°C° 0.2 mm 1 mps 685 mmHg 48%
    19:00 +20°C° 0.3 mm 2 mps 686 mmHg 51%
    20:00 +19°C° 0.3 mm 2 mps 686 mmHg 53%
    21:00 +19°C° 0.3 mm 2 mps 686 mmHg 56%
    22:00 +18°C° 0.1 mm 2 mps 686 mmHg 58%
    23:00 +18°C° 0.1 mm 2 mps 686 mmHg 61%
    Show more